VK4VP-5 Buderim QLD AU current weather conditions

sailwx.info

Wind from 212

Air temperature 16.1° C
Dewpoint 10.6° C

Last reported at 2015-Apr-21 08:46 UTC.
Time now 2015-Apr-21 09:54 UTC

Location: S 26°42' E 153°05'.
View on Google Maps.

See reports from other nearby stations

  
Tides and Currents Weather Stations Pressure Air Temp Water Temp Dewpoint Dewpoint Depression Visibility Wind Speed Wind Dir Waves Ship Positions
date/time (UTC)wind fromknots sea level pressurealtimeterstation pressurevisibilityair tempwater tempwave heightnotes
2015-Apr-21 08:46 212 16.1
2015-Apr-21 08:36 212 16.1
2015-Apr-21 08:26 212 16.7
2015-Apr-21 08:16 212 16.7
2015-Apr-21 08:09 212 0 gusting 6 17.2
2015-Apr-21 08:06 212 0 gusting 6 17.2
2015-Apr-21 07:59 212 0 gusting 5 17.2
2015-Apr-21 07:49 212 1 gusting 6 17.8
2015-Apr-21 07:39 211 3 gusting 10 17.8
2015-Apr-21 07:29 195 2 gusting 9 18.3
2015-Apr-21 07:19 188 2 gusting 9 18.9
2015-Apr-21 07:09 187 1 gusting 7 18.9
2015-Apr-21 06:59 186 0 gusting 7 19.4
2015-Apr-21 06:49 186 1 gusting 7 20.0
2015-Apr-21 06:39 186 2 gusting 8 20.6
2015-Apr-21 06:36 184 3 gusting 8 20.6
2015-Apr-21 06:29 191 3 gusting 8 21.1
2015-Apr-21 06:26 208 1 gusting 8 21.1
2015-Apr-21 06:19 222 0 gusting 5 21.7
2015-Apr-21 06:09 221 0 gusting 3 21.7
2015-Apr-21 05:59 222 22.2
2015-Apr-21 05:49 222 22.2
2015-Apr-21 05:46 222 22.2
2015-Apr-21 05:39 22.2
2015-Apr-21 05:29 21.7
2015-Apr-21 05:19 222 21.7
2015-Apr-21 05:09 222 21.7
2015-Apr-21 05:06 221 0 gusting 5 22.2
2015-Apr-21 04:59 221 0 gusting 5 22.2
2015-Apr-21 04:49 220 21.7
2015-Apr-21 04:39 220 1 gusting 5 21.7
2015-Apr-21 04:36 221 1 gusting 6 21.7
2015-Apr-21 04:29 225 0 gusting 6 21.7
2015-Apr-21 04:19 228 0 gusting 5 21.7
2015-Apr-21 04:09 226 1 gusting 8 21.1
2015-Apr-21 03:59 224 0 gusting 5 21.7
2015-Apr-21 03:49 224 1 gusting 5 21.1
2015-Apr-21 03:46 225 1 gusting 6 21.1
2015-Apr-21 03:39 226 1 gusting 6 21.1
2015-Apr-21 03:29 230 1 gusting 6 21.1
2015-Apr-21 03:26 233 1 gusting 6 20.6
2015-Apr-21 03:19 234 1 gusting 6 21.1
2015-Apr-21 03:09 234 0 gusting 3 21.1
2015-Apr-21 02:59 234 0 gusting 7 21.1
2015-Apr-21 02:49 232 0 gusting 5 21.1
2015-Apr-21 02:39 232 0 gusting 5 20.6
2015-Apr-21 02:29 235 1 gusting 8 20.6
2015-Apr-21 02:19 241 1 gusting 7 20.6
2015-Apr-21 02:09 265 0 gusting 3 20.6
2015-Apr-21 01:59 294 20.6
2015-Apr-21 01:49 238 20.0
2015-Apr-21 01:46 238 20.0
2015-Apr-21 01:39 238 19.4
2015-Apr-21 01:36 238 0 gusting 2 19.4
2015-Apr-21 01:29 238 20.0
2015-Apr-21 01:19 238 20.0
2015-Apr-21 01:16 238 19.4
2015-Apr-21 01:09 238 19.4
2015-Apr-21 00:59 238 19.4
2015-Apr-21 00:56 238 19.4
2015-Apr-21 00:49 238 19.4
2015-Apr-21 00:39 19.4
2015-Apr-21 00:36 238 18.9
2015-Apr-21 00:29 238 18.9
2015-Apr-21 00:26 238 18.9
2015-Apr-21 00:19 238 18.9
2015-Apr-21 00:09 238 18.3
2015-Apr-20 23:59 238 18.3
2015-Apr-20 23:49 238 17.8
2015-Apr-20 23:46 238 17.8
2015-Apr-20 23:39 238 17.8
2015-Apr-20 23:36 238 17.8
2015-Apr-20 23:29 238 0 gusting 5 17.8
2015-Apr-20 23:19 237 1 gusting 8 17.8
2015-Apr-20 23:09 237 1 gusting 6 17.2
2015-Apr-20 22:59 237 17.2
2015-Apr-20 22:49 237 16.7
2015-Apr-20 22:39 238 16.1
2015-Apr-20 22:29 237 0 gusting 2 16.1
2015-Apr-20 22:19 237 16.1
2015-Apr-20 22:16 237 16.1
2015-Apr-20 22:09 238 15.6
2015-Apr-20 21:59 237 15.6
2015-Apr-20 21:49 238 15.6
2015-Apr-20 21:39 237 15.6
2015-Apr-20 21:29 237 15.0
2015-Apr-20 21:19 238 15.0
2015-Apr-20 21:09 15.0
2015-Apr-20 21:06 14.4
2015-Apr-20 20:59 237 14.4
2015-Apr-20 20:56 238 14.4
2015-Apr-20 20:49 237 14.4
2015-Apr-20 20:39 237 15.0
2015-Apr-20 20:36 237 15.0
2015-Apr-20 20:29 237 15.0
2015-Apr-20 20:26 237 0 gusting 6 15.0
2015-Apr-20 20:19 237 0 gusting 6 15.0
2015-Apr-20 20:16 237 0 gusting 3 15.0
2015-Apr-20 20:09 237 15.0
2015-Apr-20 19:59 238 15.0
2015-Apr-20 19:56 238 15.0
2015-Apr-20 19:49 15.0
2015-Apr-20 19:39 237 15.0
2015-Apr-20 19:29 237 15.0
2015-Apr-20 19:19 15.0
2015-Apr-20 19:16 237 15.6
2015-Apr-20 19:09 237 15.6
2015-Apr-20 18:59 237 0 gusting 6 15.6
2015-Apr-20 18:56 237 0 gusting 6 15.6
2015-Apr-20 18:49 237 0 gusting 3 15.6
2015-Apr-20 18:39 237 0 gusting 3 15.6
2015-Apr-20 18:36 237 15.6
2015-Apr-20 18:29 237 0 gusting 5 15.6
2015-Apr-20 18:19 237 1 gusting 5 15.6
2015-Apr-20 18:16 237 1 gusting 5 15.6
2015-Apr-20 18:09 237 1 gusting 5 15.6
2015-Apr-20 18:06 237 1 gusting 3 15.6
2015-Apr-20 17:59 237 1 gusting 5 15.6
2015-Apr-20 17:56 238 1 gusting 5 15.6
2015-Apr-20 17:49 237 0 gusting 2 15.6
2015-Apr-20 17:39 237 0 gusting 3 15.6
2015-Apr-20 17:29 237 1 gusting 6 15.6
2015-Apr-20 17:26 237 1 gusting 6 15.6
2015-Apr-20 17:19 237 1 gusting 6 15.6
2015-Apr-20 17:09 237 1 gusting 5 15.6
2015-Apr-20 16:59 237 1 gusting 5 15.6
2015-Apr-20 16:49 237 15.6
2015-Apr-20 16:46 238 15.6
2015-Apr-20 16:39 237 16.1
2015-Apr-20 16:36 237 0 gusting 2 16.1
2015-Apr-20 16:29 237 0 gusting 2 16.1
2015-Apr-20 16:26 237 0 gusting 2 16.1
2015-Apr-20 16:19 237 0 gusting 3 16.1
2015-Apr-20 16:09 237 0 gusting 5 16.1
2015-Apr-20 16:06 237 0 gusting 3 16.1
2015-Apr-20 15:59 237 0 gusting 5 16.1
2015-Apr-20 15:49 237 0 gusting 3 16.1
2015-Apr-20 15:46 237 1 gusting 3 16.1
2015-Apr-20 15:39 237 1 gusting 5 16.1
2015-Apr-20 15:29 237 0 gusting 3 16.1
2015-Apr-20 15:26 237 16.1
2015-Apr-20 15:19 238 0 gusting 6 16.1
2015-Apr-20 15:16 238 1 gusting 6 16.1
2015-Apr-20 15:09 238 1 gusting 5 16.1
2015-Apr-20 15:06 238 1 gusting 5 16.1
2015-Apr-20 14:59 238 1 gusting 6 16.1
2015-Apr-20 14:49 238 1 gusting 7 16.1
2015-Apr-20 14:46 237 1 gusting 3 16.1
2015-Apr-20 14:39 237 1 gusting 6 16.1
2015-Apr-20 14:29 238 0 gusting 6 16.1
2015-Apr-20 14:19 238 2 gusting 7 16.1
2015-Apr-20 14:09 238 0 gusting 6 16.1
2015-Apr-20 13:59 237 16.1
2015-Apr-20 13:49 238 16.7
2015-Apr-20 13:39 238 0 gusting 3 16.7
2015-Apr-20 13:29 238 1 gusting 5 16.7
2015-Apr-20 13:19 238 2 gusting 8 16.7
2015-Apr-20 13:09 237 1 gusting 7 16.7
2015-Apr-20 12:59 236 3 gusting 9 16.7
2015-Apr-20 12:49 236 1 gusting 8 16.7
2015-Apr-20 12:39 234 2 gusting 8 16.7
2015-Apr-20 12:29 232 1 gusting 7 16.7
2015-Apr-20 12:26 232 1 gusting 3 17.2
2015-Apr-20 12:19 230 1 gusting 6 17.2
2015-Apr-20 12:16 228 2 gusting 8 17.2
2015-Apr-20 12:09 226 2 gusting 8 17.2
2015-Apr-20 11:59 224 1 gusting 7 17.2
2015-Apr-20 11:56 224 1 gusting 6 17.2
2015-Apr-20 11:49 225 2 gusting 8 17.2
2015-Apr-20 11:39 224 2 gusting 8 17.2
2015-Apr-20 11:29 223 2 gusting 7 17.2
2015-Apr-20 11:19 211 3 gusting 8 17.2
2015-Apr-20 11:16 207 2 gusting 7 17.2
2015-Apr-20 11:09 207 1 gusting 3 17.2
2015-Apr-20 10:59 207 17.2
2015-Apr-20 10:51 17.2
2015-Apr-20 10:41 207 17.8
2015-Apr-20 10:31 207 17.8
2015-Apr-20 10:21 208 17.8
2015-Apr-20 10:11 17.8
2015-Apr-20 10:06 17.8
2015-Apr-20 09:51 207 17.8
2015-Apr-20 09:41 207 18.3
2015-Apr-20 09:31 207 18.3
2015-Apr-20 09:21 207 18.3
2015-Apr-20 09:11 207 0 gusting 3 18.3
2015-Apr-20 09:01 207 1 gusting 3 18.3
2015-Apr-20 08:51 207 2 gusting 6 18.3
2015-Apr-20 08:41 207 3 gusting 7 18.3
2015-Apr-20 08:31 207 1 gusting 6 18.9
2015-Apr-20 08:21 207 18.9
2015-Apr-20 08:16 207 0 gusting 3 18.9
2015-Apr-20 08:01 207 19.4
2015-Apr-20 07:51 19.4
2015-Apr-20 07:41 19.4
2015-Apr-20 07:31 19.4
2015-Apr-20 07:26 207 19.4
2015-Apr-20 07:16 207 19.4
2015-Apr-20 07:01 207 20.0
2015-Apr-20 06:56 207 20.0
2015-Apr-20 06:46 207 20.0
2015-Apr-20 06:31 207 0 gusting 2 20.0
2015-Apr-20 06:21 207 0 gusting 3 20.0
2015-Apr-20 06:11 207 20.0
2015-Apr-20 06:01 207 1 gusting 5 20.0
2015-Apr-20 05:51 207 20.0
2015-Apr-20 05:41 207 0 gusting 2 20.0
2015-Apr-20 05:31 208 0 gusting 5 20.0
2015-Apr-20 05:21 208 20.0
2015-Apr-20 05:11 207 20.0
2015-Apr-20 05:01 208 20.0
2015-Apr-20 04:51 207 0 gusting 3 20.0
2015-Apr-20 04:41 207 20.0
2015-Apr-20 04:31 207 20.0
2015-Apr-20 04:21 208 20.0
2015-Apr-20 04:16 207 20.0
2015-Apr-20 04:06 207 0 gusting 2 20.0
2015-Apr-20 03:56 207 20.0
2015-Apr-20 03:41 208 0 gusting 3 20.0
2015-Apr-20 03:31 207 2 gusting 6 20.0
2015-Apr-20 03:21 207 1 gusting 6 20.6
2015-Apr-20 03:11 207 0 gusting 7 20.6
2015-Apr-20 03:01 208 2 gusting 8 21.1
2015-Apr-20 02:51 206 2 gusting 7 21.7
2015-Apr-20 02:41 205 2 gusting 6 21.7
2015-Apr-20 02:36 205 2 gusting 8 21.7
2015-Apr-20 02:21 209 3 gusting 8 22.2
2015-Apr-20 02:11 214 2 gusting 7 22.2
2015-Apr-20 02:01 220 4 gusting 8 22.2
2015-Apr-20 01:51 214 4 gusting 10 22.8
2015-Apr-20 01:41 204 3 gusting 9 22.8
2015-Apr-20 01:31 257 3 gusting 8 22.8
2015-Apr-20 01:21 239 3 gusting 10 22.8
2015-Apr-20 01:11 210 4 gusting 9 22.2
2015-Apr-20 01:01 199 1 gusting 7 22.2
2015-Apr-20 00:51 208 4 gusting 9 22.2
2015-Apr-20 00:41 203 3 gusting 9 22.2
2015-Apr-20 00:36 200 3 gusting 8 21.7
2015-Apr-20 00:26 197 1 gusting 6 21.7
2015-Apr-20 00:16 196 1 gusting 8 21.7
2015-Apr-20 00:01 191 2 gusting 7 21.1
2015-Apr-19 23:51 191 2 gusting 6 21.1
2015-Apr-19 23:46 191 2 gusting 6 21.1
2015-Apr-19 23:36 191 2 gusting 6 21.1
2015-Apr-19 23:21 192 1 gusting 7 21.1
2015-Apr-19 23:16 194 2 gusting 7 21.1
2015-Apr-19 23:01 201 3 gusting 8 21.1
2015-Apr-19 22:56 205 2 gusting 8 21.1
2015-Apr-19 22:46 206 2 gusting 10 20.6
2015-Apr-19 22:31 214 1 gusting 6 21.1
2015-Apr-19 22:26 214 1 gusting 6 21.1
2015-Apr-19 22:11 209 2 gusting 7 20.6
2015-Apr-19 22:01 208 3 gusting 8 20.6
2015-Apr-19 21:51 212 3 gusting 9 20.6
2015-Apr-19 21:41 241 4 gusting 12 20.6
2015-Apr-19 21:31 302 3 gusting 8 20.6
2015-Apr-19 21:21 325 1 gusting 6 20.6
2015-Apr-19 21:11 012 1 gusting 6 20.0
2015-Apr-19 21:01 012 0 gusting 5 20.0
2015-Apr-19 20:51 012 0 gusting 6 20.0
2015-Apr-19 20:41 012 1 gusting 3 20.0
2015-Apr-19 20:31 012 2 gusting 6 20.0
2015-Apr-19 20:26 015 2 gusting 6 20.0
2015-Apr-19 20:11 015 0 gusting 3 20.0
2015-Apr-19 20:01 016 20.0
2015-Apr-19 19:51 015 0 gusting 3 20.0
2015-Apr-19 19:41 016 20.6
2015-Apr-19 19:36 015 0 gusting 3 20.6
2015-Apr-19 19:21 015 1 gusting 5 20.6
2015-Apr-19 19:11 016 2 gusting 8 20.6
2015-Apr-19 19:01 017 2 gusting 6 20.0
2015-Apr-19 18:56 018 2 gusting 8 20.0
2015-Apr-19 18:41 017 20.0
2015-Apr-19 18:36 017 20.0
2015-Apr-19 18:26 20.0
2015-Apr-19 18:11 017 20.0
2015-Apr-19 18:06 017 20.0
2015-Apr-19 17:56 017 20.0
2015-Apr-19 17:31 017 20.0
2015-Apr-19 17:21 20.0
2015-Apr-19 17:11 018 20.0
2015-Apr-19 17:06 20.0
2015-Apr-19 16:51 018 20.6
2015-Apr-19 16:41 017 20.6
2015-Apr-19 16:31 017 20.6
2015-Apr-19 16:26 018 20.6
2015-Apr-19 16:11 017 20.6
2015-Apr-19 16:01 018 20.6
2015-Apr-19 15:51 017 21.1
2015-Apr-19 15:41 017 20.6
2015-Apr-19 15:36 017 20.6
2015-Apr-19 15:26 018 21.1
2015-Apr-19 15:11 018 0 gusting 5 20.6
2015-Apr-19 15:01 018 20.6
2015-Apr-19 14:51 018 20.6
2015-Apr-19 14:46 018 20.6
2015-Apr-19 14:31 019 0 gusting 6 21.1
2015-Apr-19 14:21 019 0 gusting 3 21.1
2015-Apr-19 14:11 019 0 gusting 5 21.1
2015-Apr-19 14:06 020 0 gusting 2 21.1
2015-Apr-19 13:51 020 21.1
2015-Apr-19 13:46 020 21.1
2015-Apr-19 13:36 21.1
2015-Apr-19 13:21 21.1
2015-Apr-19 13:11 21.1
2015-Apr-19 13:01 019 0 gusting 3 21.1
2015-Apr-19 12:51 020 21.1
2015-Apr-19 12:46 020 1 gusting 6 21.1
2015-Apr-19 12:31 022 0 gusting 3 21.7
2015-Apr-19 12:21 023 1 gusting 6 21.7
2015-Apr-19 12:11 025 1 gusting 6 22.2
2015-Apr-19 12:01 026 0 gusting 5 22.8
2015-Apr-19 11:56 026 0 gusting 3 22.8
2015-Apr-19 11:41 026 22.8
2015-Apr-19 11:31 026 22.8
2015-Apr-19 11:21 026 22.8
2015-Apr-19 11:11 026 22.8
2015-Apr-19 11:06 026 22.2
2015-Apr-19 10:51 026 22.2
2015-Apr-19 10:41 026 22.2
2015-Apr-19 10:31 026 22.2
2015-Apr-19 10:21 027 22.2
2015-Apr-19 10:11 22.2
2015-Apr-19 10:01 22.2
2015-Apr-19 09:51 026 22.8
2015-Apr-19 09:41 22.8
2015-Apr-19 09:31 027 22.8
2015-Apr-19 09:21 22.8
2015-Apr-19 09:11 22.8
2015-Apr-19 09:01 22.8